Location: Alphen aan den Rijn
(52.1277°N, 4.6689°E)
Time: 04:38:14
(UTC+02:00)

N. Korean satellite - Visible Passes

Search period start: 21 October 2021 00:00
Search period end: 31 October 2021 00:00
Orbit: 450 x 495 km, 97.3° (Epoch: 20 October)

Date Brightness Start Highest point End Pass type
(mag) Time Alt. Az. Time Alt. Az. Time Alt. Az.
21 Oct 10.0 05:51:59 10° ENE 05:53:41 13° E 05:55:23 10° ESE visible
21 Oct 6.6 07:23:40 10° N 07:27:20 68° WNW 07:30:58 10° SSW visible
22 Oct 7.3 06:55:37 10° NNE 06:59:15 59° E 07:02:51 10° S visible
22 Oct 9.9 19:09:44 10° SW 19:12:00 16° W 19:14:18 10° NW visible
23 Oct 8.8 06:27:48 10° NNE 06:31:03 29° E 06:34:16 10° SSE visible
24 Oct 9.8 06:00:27 10° NE 06:02:44 16° E 06:04:59 10° SE visible
24 Oct 6.7 07:32:40 10° N 07:36:16 53° WNW 07:39:49 10° SSW visible
25 Oct 6.8 07:04:30 10° NNE 07:08:11 75° ESE 07:11:49 10° S visible
25 Oct 10.1 19:19:14 10° WSW 19:21:00 13° W 19:22:46 10° WNW visible
26 Oct 8.3 06:36:34 10° NNE 06:40:00 36° E 06:43:22 10° SSE visible
27 Oct 9.5 06:09:00 10° NE 06:11:41 19° E 06:14:19 10° SE visible
27 Oct 7.0 07:41:36 10° N 07:45:06 42° WNW 07:48:32 10° SW visible
28 Oct 6.5 07:13:20 10° NNE 07:17:02 87° WNW 07:20:39 10° SSW visible
28 Oct 10.5 19:29:05 10° W 19:29:56 11° W 19:30:45 10° WNW visible
29 Oct 7.8 06:45:18 10° NNE 06:48:50 45° E 06:52:18 10° S visible
29 Oct 9.8 18:58:43 10° SW 19:01:29 20° W 19:04:16 10° NW visible
30 Oct 9.2 06:17:34 10° NE 06:20:32 23° E 06:23:27 10° SSE visible
30 Oct 7.2 07:50:29 10° N 07:53:50 34° WNW 07:57:08 10° SW visible
